Temp
15 16 18 18 18 19 18 19 18 15 16 18 17 17 17 16 16 15 15 15 15 15 15 15 15 15 15 15 16 16 17 16 15 15 15 15 15 15
15 15 17 17 18 18 17 18 17 17 15 18 18 17 17 16 16 15 15 15 15 15 15 16 16 16 16 16 16 16 16 16 15 15 15 14 14 14
15 16 16 16 16 16 17 17 16 16 14 16 17 16 16 16 15 15 16 16 16 16 16 16 16 16 16 15 15 15 16 15 15 14 14 13 13 12
14 15 15 15 15 15 15 16 16 16 15 14 15 16 15 15 15 14 14 15 15 15 16 16 15 15 15 14 15 14 15 14 14 13 13 13 13 12
13 14 14 13 14 15 15 15 15 15 15 14 14 14 14 14 14 14 14 14 14 14 15 14 14 14 14 14 14 14 14 14 13 12 11 11 9 8
13 12 12 12 13 14 14 14 13 13 13 13 12 13 13 14 13 13 13 14 14 14 14 13 12 11 11 10 11 11 10 8 7 6 5 6 6 6
11 11 11 13 14 14 14 13 12 12 12 11 12 13 13 13 13 13 13 13 12 12 9 9 9 7 7 6 4 4 4 4 4 4 4 3 3 2
11 11 11 13 13 13 13 13 12 12 12 12 13 13 12 11 10 9 8 8 8 8 7 6 5 5 3 2 2 1 1 1 1 0 -0 -1 -0 -0
11 11 11 12 12 12 12 12 12 11 11 10 10 8 7 6 6 6 5 5 5 5 4 3 2 2 0 -1 -1 -1 -1 -1 -0 -1 -1 -1 -1 -1
8 8 8 8 8 8 9 8 6 5 5 6 6 3 2 3 3 4 3 2 1 1 1 0 -1 -1 -1 -2 -2 -2 -3 -2 -2 -2 -2 -2 -2 -2
3 3 4 5 5 5 6 4 1 0 0 1 0 -0 -0 2 2 1 1 1 -0 -2 -2 -2 -2 -3 -2 -3 -3 -4 -4 -4 -4 -4 -3 -3 -3 -3
-0 0 1 3 3 3 4 2 -1 -2 -1 -1 -2 -2 -1 -1 -0 -0 -0 -0 -1 -2 -4 -2 -1 -2 -1 -2 -2 -2 -2 -3 -3 -3 -3 -4 -4 -4
-3 -3 -3 -0 0 0 0 -0 -1 -2 -3 -3 -3 -4 -4 -3 -3 -3 -3 -2 -3 -5 -4 -3 -3 -2 -2 -1 -2 -2 -2 -3 -3 -3 -3 -4 -4 -5
-4 -4 -4 -3 -3 -3 -3 -3 -3 -3 -3 -4 -4 -4 -4 -4 -4 -4 -4 -3 -4 -5 -4 -4 -4 -3 -3 -2 -1 -1 -2 -2 -3 -3 -4 -4 -5 -5
-4 -4 -4 -4 -4 -4 -4 -3 -3 -3 -4 -4 -4 -4 -4 -4 -4 -3 -3 -3 -3 -4 -4 -5 -5 -5 -4 -3 -3 -3 -3 -3 -3 -4 -5 -5 -6 -6
-4 -4 -4 -5 -5 -5 -5 -5 -5 -4 -4 -4 -4 -4 -4 -4 -4 -4 -4 -3 -3 -3 -4 -5 -5 -5 -5 -5 -5 -4 -4 -4 -5 -6 -6 -6 -7 -6
-4 -4 -4 -5 -5 -5 -6 -6 -6 -6 -6 -5 -5 -5 -5 -5 -5 -5 -5 -4 -4 -4 -4 -5 -6 -6 -5 -5 -6 -6 -6 -6 -7 -8 -8 -8 -7 -7
-5 -5 -5 -5 -5 -6 -6 -7 -8 -7 -7 -7 -7 -7 -6 -6 -6 -6 -6 -6 -6 -5 -5 -5 -6 -7 -7 -6 -7 -7 -8 -8 -8 -8 -8 -8 -8 -8
-6 -6 -6 -6 -7 -7 -8 -8 -9 -9 -8 -9 -9 -9 -8 -8 -7 -7 -8 -9 -9 -8 -6 -6 -6 -8 -11 -13 -9 -8 -9 -9 -8 -8 -9 -9 -9 -9
-7 -7 -7 -8 -8 -9 -9 -10 -10 -10 -10 -10 -10 -10 -10 -9 -9 -9 -9 -9 -9 -9 -7 -7 -8 -9 -9 -11 -10 -9 -8 -8 -8 -8 -9 -8 -9 -9
-9 -9 -9 -9 -10 -10 -10 -10 -11 -11 -11 -11 -11 -12 -11 -11 -10 -10 -10 -10 -10 -9 -9 -9 -9 -9 -9 -9 -9 -8 -8 -8 -8 -8 -8 -8 -9 -9
-10 -10 -11 -11 -11 -11 -11 -11 -12 -12 -12 -13 -13 -13 -13 -12 -12 -12 -11 -11 -11 -10 -11 -10 -11 -10 -9 -9 -9 -8 -8 -9 -9 -8 -8 -8 -8 -9
-12 -12 -12 -12 -13 -13 -13 -13 -13 -14 -14 -14 -14 -14 -14 -13 -13 -13 -12 -12 -12 -12 -12 -13 -12 -12 -11 -10 -10 -10 -10 -10 -10 -10 -10 -9 -9 -8
Height
771 776 779 783 786 789 791 795 797 805 808 812 813 816 819 822 824 828 831 832 834 835 836 836 837 838 839 838 837 837 837 838 838 838 839 838 837 836
767 773 776 779 783 786 790 794 796 800 803 804 809 812 816 819 822 824 826 828 828 829 830 830 830 830 831 830 829 829 828 829 829 829 829 829 828 828
763 768 773 777 781 785 790 792 795 799 801 804 807 810 813 816 817 819 820 819 820 821 822 822 822 822 823 823 821 821 820 820 819 819 818 817 816 815
759 765 770 775 779 784 788 790 793 796 798 800 803 803 809 811 812 813 813 813 813 813 813 812 814 815 815 814 813 811 811 811 810 809 808 807 805 804
756 762 767 771 775 778 781 785 789 792 793 795 796 799 803 803 803 803 804 804 805 805 807 807 807 805 803 802 802 803 802 801 799 798 797 795 795 795
757 760 763 766 770 773 776 779 783 786 788 790 791 792 794 794 796 795 794 796 797 800 799 798 798 798 797 796 795 795 795 794 792 791 792 791 790 788
753 756 759 763 766 769 773 775 778 781 783 786 785 785 786 788 789 788 790 792 790 792 792 792 791 792 790 791 791 790 791 790 790 788 788 788 785 784
748 750 754 759 761 764 768 769 773 775 777 779 780 780 780 780 783 782 785 787 788 789 789 789 789 788 788 789 789 790 790 789 787 787 786 787 784 782
743 746 749 753 755 758 760 763 767 768 770 772 774 776 775 778 778 779 781 782 785 786 787 785 788 786 788 788 789 790 789 788 785 785 785 784 783 781
740 743 746 748 750 752 754 757 762 764 765 767 768 770 772 774 774 775 776 780 782 783 785 786 787 786 787 788 789 790 789 787 786 785 785 783 781 779
741 743 745 747 749 751 753 755 760 764 769 770 770 772 774 772 772 774 774 778 781 784 785 786 786 786 785 785 786 787 786 785 785 784 782 780 779 778
744 745 746 748 750 752 754 758 763 768 769 769 772 775 774 778 775 775 776 778 781 785 787 788 786 786 786 786 786 785 783 782 782 781 781 780 778 776
750 753 755 752 754 755 756 759 763 769 774 776 776 778 780 782 783 781 782 782 784 788 789 787 788 787 787 786 784 783 782 781 780 779 779 779 778 777
753 758 761 759 763 765 766 771 771 776 779 783 782 782 786 787 788 788 787 786 787 789 790 788 788 788 787 785 784 782 782 782 781 779 778 777 775 774
760 762 764 766 770 774 777 779 780 784 786 786 785 787 790 791 791 791 791 789 789 790 790 790 788 788 787 786 785 783 781 780 779 778 774 772 771 770
765 768 772 775 778 781 782 786 789 790 790 790 791 792 792 792 791 791 791 792 792 792 792 791 790 789 787 785 784 783 781 780 779 775 772 769 767 767
769 773 776 780 785 788 790 790 792 794 793 793 793 793 794 794 794 794 793 793 792 792 792 791 790 789 786 783 783 782 781 779 777 775 771 768 766 764
771 775 781 784 788 793 795 795 796 797 796 795 795 795 796 796 796 796 795 794 795 794 791 790 789 787 787 785 784 782 780 779 777 775 773 769 763 759
780 785 786 789 791 795 798 798 799 799 799 798 798 797 797 797 798 797 796 796 795 794 792 790 789 790 791 792 786 782 779 776 775 773 770 768 761 755
786 789 791 792 795 795 800 801 802 802 802 801 800 799 799 799 799 799 799 797 796 795 794 792 791 792 792 789 784 781 779 777 773 770 767 763 758 753
793 794 795 796 798 800 801 803 804 805 805 803 802 801 800 801 802 801 801 799 798 796 796 795 793 791 789 786 783 780 778 775 771 768 765 760 755 747
798 798 800 801 802 803 804 805 806 805 804 804 803 804 804 804 804 803 802 801 800 798 798 795 793 791 788 785 781 777 775 771 768 766 764 761 756 750
801 801 802 803 805 806 808 807 807 806 805 806 806 807 807 806 804 805 804 802 800 798 796 795 794 792 789 784 780 777 773 769 766 762 758 756 752 748
Wind_Speed
35 32 30 23 18 16 6 1 9 4 6 17 11 27 25 24 26 27 27 28 30 32 31 30 29 28 30 33 35 38 40 37 35 36 39 41 40 40
34 34 28 22 21 15 7 10 2 4 3 4 12 9 15 18 22 24 25 25 27 30 33 33 32 31 34 39 42 43 41 38 40 42 44 43 45 44
29 29 23 21 17 15 17 16 14 9 4 8 9 7 7 13 16 20 22 24 29 30 33 38 38 41 41 42 39 41 43 45 45 44 43 42 39 41
27 25 25 24 21 20 18 20 24 18 15 11 14 16 25 25 24 25 24 28 33 37 40 43 42 44 47 42 38 40 40 42 43 47 46 41 41 41
26 27 25 22 23 26 26 24 26 21 20 16 14 21 26 27 25 26 27 29 32 34 35 38 43 36 36 37 36 37 38 39 39 38 37 39 36 33
25 25 27 30 28 25 25 27 24 22 23 23 23 21 22 27 23 24 26 25 29 24 21 18 18 19 19 19 22 27 27 25 22 18 18 18 19 21
26 24 23 26 24 27 24 23 22 23 21 19 19 19 20 21 21 20 20 17 12 9 7 9 9 9 8 9 10 11 14 15 17 17 17 16 14 12
25 24 25 21 27 24 24 19 21 23 19 18 17 19 16 7 5 3 3 3 2 4 4 8 10 9 8 8 9 10 10 10 10 11 10 10 10 11
21 19 18 22 20 25 29 32 26 29 30 24 19 10 5 9 11 11 7 4 4 11 12 5 8 6 6 6 7 6 6 7 8 8 9 10 12 12
10 11 12 10 9 16 18 15 10 5 2 3 5 5 2 4 5 5 4 3 2 2 5 1 4 4 4 4 5 6 8 10 9 10 12 14 13 12
13 9 4 2 4 7 11 17 18 19 17 15 15 13 10 7 5 5 6 3 3 5 8 3 6 5 3 2 4 6 8 10 12 12 15 19 19 17
21 22 19 11 9 9 12 16 19 18 17 18 17 16 15 15 12 11 9 10 6 4 9 3 4 5 1 1 4 11 12 8 11 12 12 15 20 22
28 29 29 24 20 17 17 17 21 20 20 19 19 18 18 19 20 18 14 11 12 10 8 3 6 6 3 4 5 7 7 7 7 8 10 12 16 16
29 30 31 34 32 32 30 25 24 21 19 18 20 19 17 15 16 16 16 16 15 10 7 7 4 7 6 5 4 7 1 9 5 9 11 14 18 20
31 30 29 30 28 27 25 23 22 20 18 18 18 15 12 11 11 10 9 8 8 11 11 10 7 7 7 9 9 9 11 9 6 15 13 16 20 19
29 28 28 27 25 23 23 22 20 17 16 15 13 12 11 11 12 10 10 7 6 7 8 10 11 10 8 7 8 12 12 8 14 14 18 20 20 19
25 24 23 21 19 19 21 20 19 17 17 15 14 13 12 12 12 11 10 9 8 8 8 10 11 11 11 8 4 9 13 13 16 20 22 24 22 20
25 22 20 20 19 17 17 18 18 18 16 15 15 15 13 12 11 11 12 13 12 11 12 11 13 16 15 4 4 8 12 16 17 19 20 22 24 25
22 19 19 18 18 17 16 17 16 15 14 14 15 13 15 13 13 14 13 14 15 15 13 13 11 13 7 3 12 10 20 18 17 20 18 22 25 29
20 18 18 17 16 17 15 14 14 13 14 14 14 13 14 14 13 14 14 13 14 14 13 13 13 11 8 5 12 21 13 14 21 20 22 27 29 27
18 18 18 17 16 12 13 12 11 12 13 13 14 13 11 16 13 13 13 13 14 13 13 14 15 15 15 14 13 18 15 17 16 22 22 26 24 26
16 17 16 14 13 13 11 10 12 11 12 14 12 12 10 12 11 12 12 12 13 12 13 14 15 19 18 16 15 19 19 20 21 14 17 19 18 8
15 14 11 11 13 11 12 10 8 11 8 9 10 9 9 12 10 10 11 12 13 15 14 17 18 20 19 18 19 18 20 22 21 20 22 23 23 22
Wind_Direction
199 201 201 192 199 205 221 271 159 164 185 190 178 212 221 228 232 236 240 246 252 255 255 252 242 248 262 269 275 271 273 271 276 276 277 276 275 274
200 202 198 195 201 208 201 231 285 181 165 146 210 200 234 235 236 239 247 257 261 263 259 250 251 263 276 280 282 283 274 279 284 287 288 286 279 279
200 196 195 200 201 221 237 244 257 223 168 241 253 251 210 224 229 240 249 252 261 265 265 254 255 272 282 286 289 283 283 284 285 286 286 288 283 280
189 194 198 202 206 211 224 229 239 230 215 212 239 257 263 262 270 266 260 262 262 267 268 261 268 277 274 270 272 273 279 283 283 284 286 285 284 284
196 202 209 215 222 223 223 225 226 222 223 231 235 249 258 266 266 269 272 272 260 261 261 262 271 271 273 269 273 277 280 283 281 281 281 280 283 289
203 217 227 229 224 221 219 225 221 225 234 239 239 249 261 275 274 269 274 264 268 261 255 256 261 269 276 278 279 280 285 292 294 310 315 314 311 308
228 230 221 222 228 221 221 225 220 224 223 225 245 259 262 263 258 262 258 270 255 253 250 255 276 288 298 316 324 319 324 329 335 339 337 331 328 328
222 227 222 234 237 235 230 229 231 229 231 229 247 261 264 222 243 300 323 0 330 294 326 309 312 311 325 330 338 355 1 7 14 20 24 17 14 9
216 217 214 224 232 226 230 234 237 245 251 252 249 252 269 269 282 283 283 271 235 284 306 297 305 318 325 346 6 16 9 9 10 357 344 344 342 342
149 158 170 170 161 177 184 174 159 128 125 156 165 162 204 264 277 275 265 274 265 328 343 108 346 342 331 337 7 6 5 2 356 348 343 341 340 340
89 89 114 127 109 148 171 138 115 100 96 99 100 93 80 80 90 135 102 128 122 49 26 51 13 357 330 334 3 9 5 359 352 3 2 358 356 350
80 69 66 74 106 146 147 139 121 120 115 105 88 74 77 61 74 80 94 89 104 103 17 67 23 15 271 286 338 343 345 345 357 356 350 353 352 346
76 68 68 84 88 97 106 115 116 109 95 86 82 73 61 62 59 64 79 94 92 81 41 54 36 27 344 338 303 316 348 0 354 2 356 342 332 340
81 78 75 80 83 82 83 87 91 95 92 86 76 70 64 56 53 53 49 54 64 78 63 59 44 16 341 316 306 353 7 351 353 346 343 329 324 330
91 89 84 81 83 79 80 86 86 83 83 78 76 75 65 64 56 56 51 30 38 45 31 35 30 1 359 348 342 343 341 344 2 351 343 335 329 330
84 80 79 78 78 80 77 71 72 73 71 71 73 69 71 62 55 50 46 38 65 48 29 25 12 359 341 339 341 343 358 4 350 349 337 326 326 326
92 83 77 73 70 71 67 66 66 64 63 63 63 63 56 53 48 41 37 31 37 28 19 13 360 348 335 288 343 351 354 353 347 342 339 330 323 322
82 75 69 71 69 66 67 64 57 53 53 57 56 50 50 46 41 42 35 25 17 12 10 8 4 4 6 350 5 13 2 342 335 335 333 328 319 321
77 72 73 72 71 65 61 60 56 51 55 56 52 47 40 38 36 32 40 27 9 0 358 358 16 34 15 323 317 331 332 324 323 324 324 317 310 312
70 71 70 70 69 67 61 58 52 52 48 51 48 42 37 34 38 27 24 21 359 343 357 359 18 8 337 277 283 319 340 331 324 316 313 316 314 316
68 65 65 64 66 68 63 62 62 53 46 45 42 37 32 26 25 19 12 6 357 5 354 345 344 333 323 316 300 309 318 330 322 314 318 315 311 311
67 67 65 62 60 58 60 54 52 50 42 36 35 28 23 18 15 6 4 359 351 355 344 335 344 337 328 319 316 319 325 329 329 323 328 325 325 301
57 63 64 64 56 51 52 51 47 46 38 32 32 22 9 5 10 3 356 358 358 348 1 359 347 340 338 334 332 335 335 332 329 335 334 328 315 305